CYSK

Sanikiluaq Airport

Airport
ICAO code
CYSK
IATA Code
YSK
Summary
ICAO Region
NAM
ICAO Territory
Location

Sanikiluaq, Nunavut

Serving
Sanikiluaq
Elevation
104 ft
Coordinates
56° 32' 16" N , 79° 14' 48" W
Metar
Observation
CYSK 271400Z 34025KT 6SM -SN DRSN OVC023 M03/M06 A2957 RMK SC8 CALL OUT SLP018
Station
Sanikiluaq Airport
Date/Time
2022-11-27 14:00:00
Wind direction
340°
Wind speed
25 kts
Lowest cloud amount
overcast
Temperature
-3°C
Dew point
-6°C
Humidity
79%
Weather condition
light drifting

Sanikiluaq Airport is located at Sanikiluaq, Nunavut, Canada, and is operated by the Government of Nunavut. It is one of the few airports in Nunavut that uses magnetic headings for the runway rather than true headings.

Runways

Designator Length Width Surface Rops
9/27 1158 0 UNK No/No

Airport map

Aerial View

SKYbrary Partners:

Safety knowledge contributed by: